AirNav   Advertisement
 
 1590 users online  

2FD7 Air Orlando Heliport
Orlando, Florida, USA

GOING TO ORLANDO?


FAA INFORMATION EFFECTIVE 14 SEPTEMBER 2017

Location

FAA Identifier: 2FD7
Lat/Long: 28-26-08.0210N / 081-28-23.2590W
28-26.133683N / 081-28.387650W
28.4355614 / -81.4731275
(estimated)
Elevation: 120 ft. / 37 m (estimated)
Variation: 03W (1985)
From city: 2 miles S of ORLANDO, FL
Time zone: UTC -4 (UTC -5 during Standard Time)
Zip code: 32819

Heliport Operations

Heliport use: Private use. Permission required prior to landing
Activation date: 09/1987
Control tower: no
ARTCC: JACKSONVILLE CENTER
FSS: SAINT PETERSBURG FLIGHT SERVICE STATION
Attendance: 0830-2330
ARPT UNATNDD THANKSGIVING & CHRISTMAS.
Wind indicator: yes
Segmented circle: no
Lights: ACTVT PERIMETER LGTS H1 - 123.05.

Heliport Communications

WX ASOS at MCO (9 nm E): PHONE 407-855-5235
WX AWOS-3PT at ISM (9 nm S): 128.775 (407-847-0533)
WX ASOS at ORL (10 nm NE): PHONE 407-658-6753

Nearby radio navigation aids

VOR radial/distance  VOR name  Freq  Var
ORLr229/9.7ORLANDO VORTAC112.2000E
LALr046/39.3LAKELAND VORTAC116.0001E

 
NDB name  Hdg/Dist  Freq  Var  ID
HERNY212/4.822106WOR --- .-.
SANFORD215/24.240805WSFB ... ..-. -...
LEESBURG147/28.933504WLEE .-.. . .

Heliport Services

Fuel available: A

Runway Information

Helipad H1

Dimensions: 32 x 32 ft. / 10 x 10 m
Surface: concrete
Runway edge lights: PERIMETER LGTS.
Operational restrictions: & H2 & H3 28 FT DIAMETER CIRCULAR HELIPADS.
Traffic pattern: leftleft

Helipad H2

Dimensions: 28 x 28 ft. / 9 x 9 m
Surface: concrete
Traffic pattern: leftleft

Helipad H3

Dimensions: 28 x 28 ft. / 9 x 9 m
Surface: concrete
Traffic pattern: leftleft

Heliport Ownership and Management from official FAA records

Ownership: Privately-owned
Owner: AIR ORLANDO HELICOPTER INC
8990 INTERNATIONAL DR
ORLANDO, FL 32819
Phone 407-354-1400
Manager: SAM GROOME
8990 INTERNATIONAL DR
ORLANDO, FL 32819
Phone 407-354-1400

Additional Remarks

A52-H1 80' BLDG 600' N & 40' TREES 175' S OF PAD.

Instrument Procedures

There are no published instrument procedures at 2FD7.

Some nearby airports with instrument procedures:

KMCO - Orlando International Airport (9 nm E)
KISM - Kissimmee Gateway Airport (9 nm S)
KORL - Executive Airport (10 nm NE)
X04 - Orlando Apopka Airport (17 nm N)
KSFB - Orlando Sanford International Airport (24 nm NE)
 
Loc | Ops | Rwys | IFR | FBO | Links
Com | Nav | Svcs | Stats | Notes


 
Area around 2FD7 (Air Orlando Heliport)
 
Road maps at: MapQuest Bing Google
 
Aerial photo
WARNING: Photo may not be current or correct
Aerial photo of 2FD7 (Air Orlando Heliport)
Do you have a better or more recent aerial photo of Air Orlando Heliport that you would like to share? If so, please send us your photo.

 
Sectional chart

 
Airport distance calculator
Flying to Air Orlando Heliport? Find the distance to fly.

From to 2FD7

Sunrise and sunset
Times for 26-Sep-2017
 Local
(UTC-4)
 Zulu
(UTC)
Morning civil twilight06:5410:54
Sunrise07:1711:17
Sunset19:1723:17
Evening civil twilight19:4123:41

Current date and time
Zulu (UTC)  26-Sep-2017 20:13:11
Local (UTC-4)  26-Sep-2017 16:13:11
 
METAR
KMCO 
7nm E 
261953Z 31008KT 10SM SCT050 32/21 A2984 RMK AO2 SLP104 T03220206 $
KISM 
9nm S 
261956Z 30006KT 10SM FEW050 33/21 A2985 RMK AO2 SLP109 T03280211
KORL 
10nm NE 
261953Z AUTO VRB06KT 10SM SCT055 33/20 A2984 RMK AO2 SLP107 T03330200
TAF
KMCO 
7nm E 
261720Z 2618/2718 35007KT P6SM FEW040 SCT250 FM262200 06008KT P6SM SCT040 SCT250 FM270300 36003KT P6SM SKC FM271500 29005KT P6SM SKC
KISM 
9nm S 
261720Z 2618/2718 VRB02KT P6SM SKC FM262200 06006KT P6SM FEW040 SCT250 FM270300 00000KT P6SM SKC FM271500 30005KT P6SM SKC
NOTAMs
Click for the latest NOTAMs
NOTAMs are issued by the DoD/FAA and will open in a separate window not controlled by AirNav.

 

 
 

Would you like to see your business listed on this page?

 If your business provides an interesting product or service to pilots, flight crews, aircraft, or users of the Air Orlando Heliport, you should consider listing it here.  To start the listing process, click on the button below
 
Add a business
 

Other Pages about Air Orlando Heliport

Update a link
 
Copyright © AirNav, LLC. All rights reserved. Privacy Policy  Contact